Location: Praha
(50.0830°N, 14.4670°E)
Time: 06:52:57
(UTC+02:00)

ISS - Pass Details

Date: 30 June 2022
Orbit: 414 x 420 km, 51.6° (Epoch: 02 July)

Event Time Altitude Azimuth Distance (km) Brightness Sun altitude
Exits shadow 04:08:39 - 223° (SW) 1,616 -1.5 -6.3°
Reaches altitude 10° 04:08:58 10° 221° (SW) 1,492 -1.7 -6.3°
Maximum altitude 04:12:08 40° 150° (SSE) 635 -3.0 -5.9°
Drops below altitude 10° 04:15:19 10° 80° (E) 1,502 0.0 -5.6°
Sets 04:17:29 0° 73° (ENE) 2,370 1.3 -5.4°
